Starlink 31627

operational
NORAD ID: 59268 Int'l Des: 2024-050 Owner: SPXS Country: US Constellation: starlink
LEOCIRCULAR

Starlink 31627について

説明を読み込み中...

リアルタイム位置

3D地球を読み込み中...

次回通過

高度履歴

Altitude vs Time

uPlot chart will show altitude changes over time

軌道要素

1 59268U 24050Q 25306.45426419 .00032794 00000-0 11143-2 0 9999
2 59268 53.1588 52.3125 0001076 91.9152 268.1972 15.30206006 91065
Epoch: Nov 2, 2025 • Age: 22 hours

現在のステータス

高度 479.8 km
速度 7.63 km/s
衛星直下点 48.53°N, 12.34°W
打ち上げ日 Mar 19, 2024
運用期間 1.6 years
タイプ internet

技術仕様

分類 Payload
質量 730.00 kg
乾燥質量 700.00 kg
総質量 730.00 kg
長さ 0.30 m
直径 4.10 m
スパン 29.00 m
形状 Box + pan
製造者 SPXS
バスタイプ Starlink V2M
フェーズステータス In Orbit
所有者/国 SPXS/US

大規模コンステレーション

Loading constellations...